Location: Lafig�re
(44.4503°N, 4.0357°E)
Time: 14:35:28
(UTC+00:00)

Transit 2A Rocket - Pass Details

Date: 23 January 2021
Orbit: 594 x 908 km, 66.7° (Epoch: 06 March)

Event Time Altitude Azimuth Distance (km) Brightness Sun altitude
Rises 13:20:04 0° 243° (WSW) 3,317 9.0 23.4°
Reaches altitude 10° 13:22:54 10° 254° (WSW) 2,334 8.2 23.2°
Maximum altitude 13:27:28 28° 313° (NW) 1,361 6.3 22.9°
Drops below altitude 10° 13:31:43 10° 13° (NNE) 2,163 6.9 22.6°
Sets 13:34:15 0° 25° (NNE) 3,030 7.5 22.4°
